Date String (YYYY-MM-DD hh:mm:ss) UTC,Instrument flags,Ambient pressure (hPa),Sample flow (lpm),Bypass flow (lpm),Sample temperature (°C),Ambient temperature (°C),ASC tube jacket temperature (°C),LED temperature (°C),Box temperature (°C),Sample RH (%),Span deviation,Mass concentration (μg/m³),Mass concentration (μg/m³),Mass concentration (μg/m³)
DateTimeUTC,F1_M11,P_M11,Q1_M11,Q2_M11,T1_M11,T2_M11,T3_M11,T4_M11,T5_M11,U1_M11,ZSPAN_M11,X0_M11,X2_M11,X1_M11
2021-08-24 02:00:00,,0825.0,5.01,0.00,29.2,28.3,00.0,38.1,31.2,25.0,0002.1,0014.61,0005.57,0004.95
2021-08-24 02:01:00,,0825.1,5.01,0.00,29.2,28.4,00.0,38.1,31.2,24.8,0002.0,0014.11,0005.59,0004.94
2021-08-24 02:02:00,,0825.1,5.02,0.00,29.2,27.4,00.0,38.1,31.0,24.8,0002.1,0014.78,0005.58,0004.92
2021-08-24 02:03:00,,0825.1,4.99,0.00,29.1,25.7,00.0,38.1,30.5,25.2,0001.9,0014.95,0005.56,0004.89
2021-08-24 02:04:00,,0825.1,5.00,0.00,28.9,25.3,00.0,38.1,30.3,25.6,0001.6,0014.62,0005.53,0004.86
2021-08-24 02:05:00,,0825.1,5.01,0.00,28.9,25.7,00.0,38.0,30.4,25.4,0001.6,0013.68,0005.46,0004.83
2021-08-24 02:06:00,,0825.1,5.00,0.00,28.8,26.2,00.0,38.0,30.5,25.1,0000.4,0013.46,0005.41,0004.80
2021-08-24 02:07:00,,0825.1,5.00,0.00,28.9,26.6,00.0,38.0,30.7,24.9,0000.0,0013.27,0005.34,0004.79
2021-08-24 02:08:00,,0825.1,4.98,0.00,28.9,27.1,00.0,38.0,30.8,25.0,0000.0,0012.51,0005.32,0004.77
2021-08-24 02:09:00,,0825.2,5.00,0.00,28.9,27.4,00.0,38.0,30.8,25.1,0000.0,0012.29,0005.27,0004.74
2021-08-24 02:10:00,,0825.2,5.00,0.00,29.0,27.7,00.0,38.0,30.9,24.0,0000.0,0011.62,0005.25,0004.74
2021-08-24 02:11:00,,0825.2,4.99,0.00,29.0,27.9,00.0,38.0,31.0,23.8,0000.0,0011.49,0005.29,0004.76
2021-08-24 02:12:00,,0825.2,5.00,0.00,29.1,28.1,00.0,38.0,31.1,23.5,0000.0,0011.35,0005.31,0004.77
2021-08-24 02:13:00,,0825.2,5.00,0.00,29.2,28.2,00.0,38.1,31.1,23.4,0000.0,0010.94,0005.31,0004.80
2021-08-24 02:14:00,,0825.2,5.01,0.00,29.2,28.4,00.0,38.1,31.2,23.2,0000.0,0010.87,0005.37,0004.84
2021-08-24 02:15:00,,0825.2,5.00,0.00,29.3,28.4,00.0,38.1,31.2,23.1,0000.0,0011.03,0005.43,0004.90
2021-08-24 02:16:00,,0825.2,5.00,0.00,29.3,28.1,00.0,38.2,31.1,23.1,0000.0,0011.32,0005.54,0004.96
2021-08-24 02:17:00,,0825.2,5.00,0.00,29.2,26.3,00.0,38.1,30.5,23.3,0000.0,0011.84,0005.63,0005.02
2021-08-24 02:18:00,,0825.2,5.00,0.00,29.0,25.3,00.0,38.1,30.2,23.5,0000.5,0012.28,0005.74,0005.06
2021-08-24 02:19:00,,0825.2,5.01,0.00,28.9,25.5,00.0,38.1,30.3,23.5,0000.4,0012.60,0005.81,0005.11
2021-08-24 02:20:00,,0825.2,5.00,0.00,28.8,26.0,00.0,38.0,30.4,23.5,0002.6,0012.69,0005.93,0005.16
2021-08-24 02:21:00,,0825.2,4.99,0.00,28.8,26.4,00.0,38.0,30.5,23.5,0002.7,0012.60,0005.97,0005.17
2021-08-24 02:22:00,,0825.3,5.00,0.00,28.9,26.9,00.0,38.0,30.7,23.6,0002.7,0012.36,0005.99,0005.18
2021-08-24 02:23:00,,0825.3,4.99,0.00,28.9,27.3,00.0,38.0,30.8,23.4,0002.9,0012.13,0005.97,0005.19
2021-08-24 02:24:00,,0825.3,5.00,0.00,29.0,27.5,00.0,38.0,30.9,23.3,0002.3,0011.82,0005.97,0005.18
2021-08-24 02:25:00,,0825.3,5.01,0.00,29.0,27.8,00.0,38.0,30.9,24.5,0000.0,0012.01,0005.96,0005.17
2021-08-24 02:26:00,,0825.3,5.01,0.00,29.1,28.0,00.0,38.0,31.0,25.2,0002.2,0011.79,0005.90,0005.11
2021-08-24 02:27:00,,0825.3,5.00,0.00,29.1,28.1,00.0,38.1,31.1,24.8,0002.6,0011.57,0005.79,0005.04
2021-08-24 02:28:00,,0825.4,4.98,0.00,29.2,28.3,00.0,38.1,31.1,24.1,0002.4,0011.01,0005.67,0004.98
2021-08-24 02:29:00,,0825.4,5.01,0.00,29.2,28.4,00.0,38.1,31.2,23.7,0002.3,0010.71,0005.60,0004.94
2021-08-24 02:30:00,,0825.3,5.00,0.00,29.3,28.4,00.0,38.1,31.2,23.6,0002.5,0011.61,0005.56,0004.90
2021-08-24 02:31:00,,0825.3,5.00,0.00,29.3,28.5,00.0,38.2,31.3,23.4,0002.5,0011.05,0005.47,0004.86
2021-08-24 02:32:00,,0825.3,5.00,0.00,29.3,27.1,00.0,38.2,30.9,23.4,0002.1,0010.89,0005.39,0004.81
2021-08-24 02:33:00,,0825.4,4.99,0.00,29.1,26.1,00.0,38.2,30.6,23.6,0002.3,0010.61,0005.29,0004.76
2021-08-24 02:34:00,,0825.4,5.00,0.00,29.1,26.2,00.0,38.2,30.6,24.0,0002.5,0010.49,0005.24,0004.70
2021-08-24 02:35:00,,0825.4,5.00,0.00,29.1,26.7,00.0,38.2,30.8,24.4,0002.8,0010.22,0005.18,0004.64
2021-08-24 02:36:00,,0825.4,5.01,0.00,29.1,27.1,00.0,38.1,30.9,24.5,0002.5,0009.88,0005.11,0004.59
2021-08-24 02:37:00,,0825.4,4.99,0.00,29.1,27.4,00.0,38.1,31.0,24.0,0002.7,0010.58,0005.08,0004.58
2021-08-24 02:38:00,,0825.4,5.02,0.00,29.1,27.7,00.0,38.1,31.0,24.1,0002.6,0010.61,0005.05,0004.57
2021-08-24 02:39:00,,0825.4,5.00,0.00,29.2,27.9,00.0,38.2,31.1,23.8,0002.3,0011.23,0005.04,0004.54
2021-08-24 02:40:00,,0825.4,5.00,0.00,29.2,28.1,00.0,38.2,31.2,23.3,0002.1,0011.24,0005.02,0004.51
2021-08-24 02:41:00,,0825.4,4.99,0.00,29.3,28.3,00.0,38.2,31.2,23.1,0001.6,0010.11,0004.98,0004.48
2021-08-24 02:42:00,,0825.4,5.00,0.00,29.3,28.4,00.0,38.2,31.3,23.2,0001.4,0009.91,0004.94,0004.46
2021-08-24 02:43:00,,0825.4,4.99,0.00,29.4,28.2,00.0,38.2,31.2,23.7,0000.6,0010.14,0004.91,0004.43
2021-08-24 02:44:00,,0825.4,5.00,0.00,29.3,26.5,00.0,38.2,30.7,24.0,0001.1,0010.11,0004.88,0004.42
2021-08-24 02:45:00,,0825.4,5.00,0.00,29.1,25.2,00.0,38.2,30.3,24.2,0000.3,0010.29,0004.89,0004.42
2021-08-24 02:46:00,,0825.4,5.00,0.00,29.0,25.3,00.0,38.2,30.4,24.2,0000.0,0010.94,0004.89,0004.41
2021-08-24 02:47:00,,0825.4,5.01,0.00,28.9,25.8,00.0,38.1,30.5,24.2,0000.0,0010.91,0004.85,0004.41
2021-08-24 02:48:00,,0825.4,4.99,0.00,28.9,26.3,00.0,38.1,30.6,24.0,0000.9,0010.07,0004.85,0004.40
2021-08-24 02:49:00,,0825.4,5.01,0.00,28.9,26.8,00.0,38.1,30.7,23.6,0001.8,0010.04,0004.84,0004.39
2021-08-24 02:50:00,,0825.5,4.99,0.00,28.9,27.1,00.0,38.1,30.8,23.6,0001.1,0009.89,0004.86,0004.39
2021-08-24 02:51:00,,0825.4,5.01,0.00,29.0,27.5,00.0,38.1,30.9,23.4,0001.1,0010.34,0004.84,0004.39
2021-08-24 02:52:00,,0825.4,5.01,0.00,29.0,27.7,00.0,38.1,30.9,23.1,0001.3,0010.31,0004.81,0004.40
2021-08-24 02:53:00,,0825.4,4.99,0.00,29.1,27.9,00.0,38.1,31.0,23.0,0000.0,0010.19,0004.80,0004.40
2021-08-24 02:54:00,,0825.4,5.02,0.00,29.1,28.0,00.0,38.1,31.0,22.9,0000.0,0010.36,0004.84,0004.44
2021-08-24 02:55:00,,0825.5,5.00,0.00,29.2,28.1,00.0,38.1,31.1,22.7,0000.9,0011.16,0004.89,0004.48
2021-08-24 02:56:00,,0825.4,5.00,0.00,29.2,28.3,00.0,38.1,31.2,22.6,0001.1,0011.21,0004.91,0004.51
2021-08-24 02:57:00,,0825.4,4.99,0.00,29.3,28.4,00.0,38.2,31.2,22.9,0000.0,0010.60,0004.95,0004.54
2021-08-24 02:58:00,,0825.5,5.00,0.00,29.3,28.4,00.0,38.2,31.3,23.6,0000.4,0010.65,0005.00,0004.57
2021-08-24 02:59:00,,0825.5,5.00,0.00,29.4,28.5,00.0,38.2,31.3,23.2,0000.0,0011.13,0005.03,0004.59
